Location: *
(49.9853°N, 3.5569°E)
Time: 21:11:05
(UTC+00:00)

Cosmos 405 Rocket - Pass Details

Date: 22 September 2019
Orbit: 491 x 555 km, 81.3° (Epoch: 13 October)

Event Time Altitude Azimuth Distance (km) Brightness Sun altitude
Rises 18:32:00 0° 164° (SSE) 2,558 6.0 -8.4°
Reaches altitude 10° 18:34:17 10° 153° (SSE) 1,684 4.9 -8.8°
Maximum altitude 18:37:28 28° 93° (E) 954 3.5 -9.3°
Drops below altitude 10° 18:40:42 10° 33° (NNE) 1,713 5.1 -9.8°
Sets 18:43:02 0° 21° (NNE) 2,611 6.2 -10.1°
